STARLINK-1587, 46157

Orbit data source: Space-Track

STARLINK-1587, 46157 is a payload satellite owned by SpaceX/Seattle (US) in LEO that was launched on Tue, 18 Aug 2020 UTC via an FALCON 9 launch vehicle from the Air Force Eastern Test Range (AFETR). Payload-class satellites include a variety of spacecraft equipped with specific instruments for various scientific and technological missions. These include communications satellites like Starlink; space stations such as the ISS; scientific satellites like the Hubble; Earth observation satellites from companies like Planet Labs, Umbra, and HawkEye 360; GPS; miniature CubeSats for education and research; and military/defense satellites.

Loading next visibility...
Identifier
46157, 2020-057AS
Orbit
LEO
Country
Flag of USUS
Related business
Manufacturer
SpaceX/Seattle
Mission
Partially operational Commercial Communications
Bus & Motor
STARLINK, Unknown motor
Mass
260 kg wet, ~248 kg dry
Launch date (UTC)
2020-08-18 (5 years ago)
Launch vehicle
FALCON 9
Launch site
Air Force Eastern Test Range (AFETR)
Object type
Payload
Rocket body
Debris
Shape & HBR
Box + 1 Pan, 10.1 m
Radar Cross Section
13.562 m², Large (>1 m²)

Expand to show TLE details & history
Last TLE update: 2 hours ago

TLE from 2 hours ago
0 STARLINK-1587
1 46157U 20057AS  25355.25001156  .00117067  00000-0  17278-2 0  9996
2 46157  53.0469 245.2568 0015564  83.0352  83.2849 15.54378134  5950
Epoch: 2025-12-21T06:00Z
TLE epoch observation values (Epoch: 2025-12-21T06:00:00.998Z)
Latitude
10.74101°
Longitude
-122.97057°
Altitude
402.88 km
Speed
7.672 km/s
True Right ascension
03h 48m 23s
True Declination
10° 40' 30"
Sunlit
Object was in full shadow at epoch
Visualization orbit readout
Latitude
Unknown
Longitude
Unknown
Altitude
Unknown
Speed
Unknown
Apparent Right ascension
Unknown
Apparent Declination
Unknown
Sunlit
N/A
Visualization observer readout
Local Sidereal Time
07:17:43
Azimuth
Unknown
Elevation
Unknown
Doppler factor
Unknown
Orbital elements
Apogee altitude
414.795 km
Perigee altitude
393.682 km
Semi-major axis
6,782.375 km
Eccentricity
0.00156
Inclination
53.0469°
RAAN
245.2568°
Arg. of periapsis
83.0352°
True anomaly
83.46207°
Mean anomaly
83.2849°
Eccentric anomaly
83.37348°
Mean motion
3.88571 °/min
Orbital period
92.65 mins
BSTAR
0.0017278
Loading maneuver chart data...
Computing Atmospheric mass density...

Documentation

Showing up to 5 results
|